Regional Weather Roundup
Issued by NWS

Home | Current Version | Previous Version | Text Only | Print | Product List | Glossary Off
Versions: 1 2 3 4 5 6 7 8 9 10 11 12 13 14 15 16 17 18 19 20 21 22 23 24 25 26 27 28 29 30 31 32 33 34 35 36 37 38 39 40 41 42 43 44 45 46 47 48 49 50

000
ASUS43 KMPX 260901
RWRMN
WEATHER ROUNDUP FOR MINNESOTA
NATIONAL WEATHER SERVICE TWIN CITIES/CHANHASSEN MN
400 AM CDT MON JUN 26 2017


NOTE: "FAIR" INDICATES FEW OR NO CLOUDS BELOW 12,000 FEET WITH NO
SIGNIFICANT WEATHER AND/OR OBSTRUCTIONS TO VISIBILITY. N/A MEANS
CURRENT SKY AND/OR WEATHER CONDITIONS ARE NOT AVAILABLE.

MNZ060>063-068>070-261000-
   Twin Cities Metro

CITY           SKY/WX    TMP DP  RH WIND       PRES   REMARKS
TWIN CITIES    CLEAR     53  44  71 NW6       30.15R
ST PAUL        CLEAR     50  45  83 NW6       30.15R
CRYSTAL        CLEAR     50  41  71 NW7       30.14R
BLAINE         CLEAR     50  45  81 NW6       30.15R
LAKEVILLE      CLEAR     48  45  87 W5        30.15R
EDEN PRAIRIE   CLEAR     54  44  69 NW7       30.14S
SOUTH ST PAUL  CLEAR     50  45  80 CALM      30.15R
LAKE ELMO      FAIR      48  43  81 CALM      30.15S
$$
MNZ001>005-007-008-013>017-022>024-027-028-261000-
   Northwest Minnesota

CITY           SKY/WX    TMP DP  RH WIND       PRES   REMARKS
BEMIDJI        CLEAR     41  40  95 NW5       30.17R
HALLOCK        CLEAR     43  39  87 CALM      30.19S
ROSEAU         CLEAR     46  43  87 W8        30.16S
WARROAD        CLEAR     46  43  87 W6        30.15F
CROOKSTON      CLEAR     43  39  87 CALM      30.20F
FOSSTON        CLEAR     37  36  93 CALM      30.20R
DETROIT LAKES  CLEAR     45  41  87 CALM      30.21R
MOORHEAD       CLEAR     45  39  81 CALM      30.22S
MAHNOMEN       FAIR      42  41  96 CALM      30.19S
$$
MNZ006-009>011-018-025>026-261000-
   North Central Minnesota

CITY           SKY/WX    TMP DP  RH WIND       PRES   REMARKS
FLAG ISLAND    PTCLDY    48  45  87 W12       30.12S
INTL FALLS     CLEAR     42  40  92 W3        30.11S
WASKISH        CLEAR     50  46  87 NW9       30.15S
BIG FORK       CLEAR     39  37  93 CALM      30.13S
LONGVILLE      CLEAR     45  45 100 W6        30.15S
GRAND RAPIDS   CLEAR     45  43  93 W5        30.15S
CRANE LAKE     CLEAR     36  36 100 CALM      30.12S
ORR            CLEAR     45  41  87 NW3       30.09S
COOK           CLEAR     39  39 100 CALM      30.11S
WALKER         FAIR      40  39  96 W3        30.16S
$$
MNZ012-019>021-037-261000-
   Northeast Minnesota

CITY           SKY/WX    TMP DP  RH WIND       PRES   REMARKS
DULUTH         CLOUDY    45  45 100 NW7       30.09S
ELY            MOCLDY    45  45 100 CALM      30.08S
HIBBING        CLEAR     37  37 100 CALM      30.11S FOG
EVELETH        PTCLDY    46  41  81 NW7       30.11S
DULUTH HARBOR  DRIZZLE   52  46  82 W6        30.11S
TWO HARBORS    MOCLDY    50  45  81 NW5       30.06F
SILVER BAY     CLOUDY    48  46  93 CALM      30.05S
GRAND MARAIS     N/A     50  47  89 NW10      30.03F
G MARAIS ARPRT LGT RAIN  45  39  81 NW5       30.05R
$$
MNZ029>031-032-039>041-046>048-054>057-064-261000-
   West Central Minnesota

CITY           SKY/WX    TMP DP  RH WIND       PRES   REMARKS
FERGUS FALLS   CLEAR     46  41  81 CALM      30.20R
WHEATON        CLEAR     46  43  87 CALM      30.23S
MORRIS         CLEAR     46  45  93 W5        30.19S
ALEXANDRIA     CLEAR     48  44  86 N6        30.20S
ELBOW LAKE     FAIR      45  43  93 NW3       30.21R
WADENA         CLEAR     41  39  93 CALM      30.18S
GLENWOOD       CLEAR     46  43  87 NW5       30.20R
APPLETON       CLEAR     50  45  81 N3        30.20R
BENSON         FOG       45  43  93 N3        30.21S VSB 1/2
ORTONVILLE     CLEAR     52  45  76 NW3       30.21R
MADISON        PTCLDY    50  50 100 W5        30.21R
WILLMAR        FAIR      48  46  93 NW3       30.20S
$$
MNZ033>034-036-042>043-049>051-058-059-261000-
   Central Minnesota

CITY           SKY/WX    TMP DP  RH WIND       PRES   REMARKS
ST CLOUD       CLEAR     45  42  89 NW5       30.16S
SAUK CENTRE    FAIR      44  41  89 NW5       30.19S
PAYNESVILLE    CLEAR     43  43 100 W3        30.19S
AITKIN         CLEAR     39  37  93 CALM      30.14R FOG
PINE RIVER     CLEAR     46  45  93 CALM      30.19S
STAPLES        CLEAR     43  41  93 NW5       30.18S
LONG PRAIRIE   FAIR      45  41  87 W5        30.19S
LITTLE FALLS     N/A     39  37  93 CALM      30.17S FOG
LITCHFIELD     CLEAR     52  46  82 NW3       30.18R
BUFFALO        CLEAR     51  43  72 NW3       30.17S
MAPLE LAKE     CLEAR     50  45  81 NW6       30.18R
HUTCHINSON     CLEAR     47  46  97 W3        30.19R
$$
MNZ037-044-045-052-053-261000-
   East Central Minnesota

CITY           SKY/WX    TMP DP  RH WIND       PRES   REMARKS
PRINCETON      CLEAR     41  39  93 CALM      30.16S
MORA           CLEAR     43  41  93 CALM      30.16S
CAMBRIDGE      CLEAR     46  39  76 CALM      30.13S
RUSH CITY      CLEAR     41  41 100 CALM      30.14S
MOOSE LAKE     CLEAR     41  39  93 CALM      30.11S
HINCKLEY       FAIR      43  43 100 CALM      30.14R
CLOQUET        PTCLDY    41  39  93 W3        30.11S
MCGREGOR       CLEAR     43  41  93 CALM      30.14S
$$
MNZ071>073-080-081-089-090-097-098-261000-
   Southwest Minnesota

CITY           SKY/WX    TMP DP  RH WIND       PRES   REMARKS
MONTEVIDEO     CLEAR     50  45  81 N5        30.20R
GRANITE FALLS  CLEAR     47  46  93 W6        30.21S
CANBY          CLEAR     48  45  89 CALM      30.22S
MARSHALL       CLEAR     48  45  89 W3        30.20S
REDWOOD FALLS  CLEAR     50  45  83 NW8       30.18S
OLIVIA         CLEAR     50  46  87 NW6       30.18S
PIPESTONE      CLEAR     50  46  87 CALM      30.20S
WINDOM         CLEAR     48  46  93 W5        30.19F
WORTHINGTON    CLEAR     51  49  92 W5        30.20F
JACKSON        PTCLDY    54  48  82 CALM      30.19F
TRACY          CLEAR     52  48  86 W5        30.20F
SLAYTON        CLEAR     50  48  95 W5        30.21S
$$
MNZ065>067-074>077-082>085-091>093-261000-
   South Central Minnesota

CITY           SKY/WX    TMP DP  RH WIND       PRES   REMARKS
NEW ULM        PTCLDY    50  45  81 W7        30.17S
ST JAMES       CLEAR     48  46  93 W6        30.19S
FAIRMONT       CLEAR     54  49  83 NW9       30.19R
GLENCOE        CLEAR     50  49  94 CALM      30.17R
FARIBAULT      MOCLDY    52  46  82 CALM      30.16R
OWATONNA       MOCLDY    52  46  82 CALM      30.16R
WASECA         MOCLDY    52  48  87 W5        30.18R
ALBERT LEA     MOCLDY    54  46  76 CALM      30.16R
$$
MNZ078>079-086>088-094>096-261000-
   Southeast Minnesota

CITY           SKY/WX    TMP DP  RH WIND       PRES   REMARKS
ROCHESTER      CLOUDY    50  47  89 NW8       30.14S
RED WING       CLEAR     46  43  87 CALM      30.13R
STANTON        CLEAR     47  44  91 CALM      30.14R
DODGE CENTER   MOCLDY    52  46  82 NW7       30.15R
WINONA         MOCLDY    48  46  93 CALM      30.13R
AUSTIN         CLOUDY    54  45  71 W7        30.15R
PRESTON        PTCLDY    49  44  81 NW7       30.14S
$$
ABBREVIATIONS USED IN REMARKS
   TC - TEMPERATURES IN CELSIUS
  WCI - WIND CHILL INDEX
   HX - HEAT INDEX
  VSB - VISIBILITY
$$



USA.gov is the U.S. government's official web portal to all federal, state and local government web resources and services.